Weather History for Mountain Home, ID

Change the Weather History Date:

Sunday, August 25, 2013

  Actual Average Record
Temperature  
Mean Temperature 77 °F 72 °F  
Max Temperature 91 °F 89 °F 105 °F (1969)
Min Temperature 63 °F 54 °F 27 °F (1910)
Degree Days  
Heating Degree Days 0 1  
Month to date heating degree days 0 2  
Cooling Degree Days 12 8  
Month to date cooling degree days 298 269  
Growing Degree Days 26 (Base 50)    
Moisture  
Dew Point 44 °F    
Average Humidity 33    
Maximum Humidity 58    
Minimum Humidity 15    
Precipitation  
Precipitation T in 0.01 in 0.50 in (1977)
Month to date precipitation 0.06 0.10  
Sea Level Pressure  
Sea Level Pressure 29.81 in    
Wind  
Wind Speed 17 mph (ESE)    
Max Wind Speed 29 mph    
Max Gust Speed 33 mph    
Visibility 10 miles    
Events      
T = Trace of Precipitation, MM = Missing Value Source: NWS Daily Summary

Daily Weather History Graph

Daily Weather History Graph

Search for Another Location

Airport:

Trip Planner

Search our weather history database for the weather conditions in past years. The results will help you decide how hot, cold, wet, or windy it might be!

Date:

Astronomy

Aug. 25, 2013 Rise Set
Actual Time 7:00 AM MDT 8:29 PM MDT
Civil Twilight 6:30 AM MDT 8:59 PM MDT
Nautical Twilight 5:54 AM MDT 9:34 PM MDT
Astronomical Twilight 5:16 AM MDT 10:13 PM MDT
Moon 10:53 PM MDT (8/25) 12:16 PM MDT (8/25)
Length of Visible Light 14h 28m
Length of Day
13h 28m
Waning Gibbous, 75% of the Moon is Illuminated
Aug 25
Waning Gibbous
Aug 28
Last Quarter
Sep 5
New
Sep 12
First Quarter
Sep 19
Full

Hourly Weather History & Observations

Time (MDT) Temp. Dew Point Humidity Pressure Visibility Wind Dir Wind Speed Gust Speed Precip Events Conditions
12:58 AM 75.7 °F 45.1 °F 34% 29.74 in 10.0 mi East 28.8 mph 33.4 mph N/A   Clear
1:58 AM 72.7 °F 46.4 °F 39% 29.77 in 10.0 mi ESE 18.4 mph 26.5 mph N/A   Clear
2:58 AM 70.2 °F 47.7 °F 45% 29.79 in 10.0 mi SE 16.1 mph 24.2 mph N/A   Clear
3:58 AM 68.4 °F 47.7 °F 48% 29.79 in 10.0 mi ESE 16.1 mph - N/A   Clear
4:58 AM 67.5 °F 47.3 °F 48% 29.80 in 10.0 mi SE 16.1 mph - N/A   Clear
5:58 AM 65.3 °F 47.8 °F 53% 29.82 in 10.0 mi SE 13.8 mph - N/A   Clear
6:58 AM 63.3 °F 48.2 °F 58% 29.83 in 10.0 mi SE 13.8 mph - N/A   Clear
7:58 AM 64.8 °F 49.1 °F 57% 29.86 in 10.0 mi SE 16.1 mph - N/A   Clear
8:58 AM 69.3 °F 49.1 °F 49% 29.86 in 10.0 mi SE 21.9 mph 26.5 mph N/A   Clear
9:58 AM 73.2 °F 49.6 °F 43% 29.87 in 10.0 mi SE 19.6 mph 26.5 mph N/A   Clear
10:58 AM 78.4 °F 47.5 °F 34% 29.86 in 10.0 mi SE 23.0 mph - N/A   Clear
11:58 AM 82.9 °F 38.7 °F 21% 29.85 in 10.0 mi SE 13.8 mph - N/A   Clear
12:16 PM 84.2 °F 42.8 °F 23% 29.94 in 10.0 mi ESE 16.1 mph - N/A   Clear
12:43 PM 86.0 °F 42.8 °F 22% 29.93 in 10.0 mi East 13.8 mph - N/A   Clear
12:58 PM 86.2 °F 44.1 °F 23% 29.83 in 10.0 mi ESE 12.7 mph 23.0 mph N/A   Clear
1:58 PM 88.2 °F 41.5 °F 19% 29.80 in 10.0 mi ESE 10.4 mph - N/A   Clear
2:58 PM 88.7 °F 39.7 °F 18% 29.79 in 10.0 mi ESE 5.8 mph - N/A   Partly Cloudy
3:58 PM 89.2 °F 39.7 °F 18% 29.77 in 10.0 mi Variable 5.8 mph - N/A   Scattered Clouds
4:58 PM 89.8 °F 40.5 °F 18% 29.74 in 10.0 mi East 11.5 mph - N/A   Mostly Cloudy
5:58 PM 89.1 °F 39.7 °F 18% 29.73 in 10.0 mi East 8.1 mph - N/A   Partly Cloudy
6:58 PM 88.2 °F 34.0 °F 15% 29.73 in 10.0 mi East 4.6 mph - 0.00 in   Mostly Cloudy
7:58 PM 84.4 °F 38.7 °F 20% 29.75 in 10.0 mi WSW 10.4 mph - N/A   Mostly Cloudy
8:58 PM 81.9 °F 38.5 °F 21% 29.80 in 10.0 mi ESE 5.8 mph - N/A   Overcast
9:58 PM 77.0 °F 43.0 °F 30% 29.82 in 10.0 mi East 11.5 mph - N/A   Partly Cloudy
10:58 PM 72.7 °F 45.3 °F 38% 29.81 in 10.0 mi East 10.4 mph - N/A   Clear
11:58 PM 73.6 °F 44.1 °F 35% 29.86 in 10.0 mi NW 4.6 mph - N/A   Clear